Time,TemperatureF,DewpointF,PressureIn,WindDirection,WindDirectionDegrees,WindSpeedMPH,WindSpeedGustMPH,Humidity,HourlyPrecipIn,Conditions,Clouds,dailyrainin,SoftwareType,DateUTC
2013-11-15 00:10:00,38.2,22.0,30.02,SSE,159,1.0,4.0,53,0.00,,,0.00,weatherlink.com 1.10,2013-11-15 06:10:00,
2013-11-15 00:25:00,38.2,23.0,30.02,SSE,166,2.0,4.0,54,0.00,,,0.00,weatherlink.com 1.10,2013-11-15 06:25:00,
2013-11-15 00:40:00,38.3,25.0,30.02,SSE,163,1.0,3.0,58,0.00,,,0.00,weatherlink.com 1.10,2013-11-15 06:40:00,
2013-11-15 00:55:00,38.7,24.0,30.02,SSE,162,1.0,4.0,55,0.00,,,0.00,weatherlink.com 1.10,2013-11-15 06:55:00,
2013-11-15 01:10:00,38.6,24.0,30.02,SSE,156,2.0,4.0,56,0.00,,,0.00,weatherlink.com 1.10,2013-11-15 07:10:00,
2013-11-15 01:25:00,38.2,24.0,30.02,SSE,161,2.0,4.0,57,0.00,,,0.00,weatherlink.com 1.10,2013-11-15 07:25:00,
2013-11-15 01:40:00,37.8,24.0,30.02,SSE,153,2.0,4.0,59,0.00,,,0.00,weatherlink.com 1.10,2013-11-15 07:40:00,
2013-11-15 01:55:00,37.5,25.0,30.02,SSE,160,2.0,5.0,60,0.00,,,0.00,weatherlink.com 1.10,2013-11-15 07:55:00,
2013-11-15 02:10:00,37.1,25.0,30.02,SSE,159,2.0,4.0,61,0.00,,,0.00,weatherlink.com 1.10,2013-11-15 08:10:00,
2013-11-15 02:25:00,36.9,25.0,30.02,SSE,159,3.0,6.0,62,0.00,,,0.00,weatherlink.com 1.10,2013-11-15 08:25:00,
2013-11-15 02:40:00,36.8,26.0,30.02,South,173,2.0,5.0,64,0.00,,,0.00,weatherlink.com 1.10,2013-11-15 08:40:00,
2013-11-15 02:55:00,37.0,25.0,30.01,SSE,167,4.0,5.0,63,0.00,,,0.00,weatherlink.com 1.10,2013-11-15 08:55:00,
2013-11-15 03:10:00,37.1,26.0,30.01,SSE,165,4.0,5.0,64,0.00,,,0.00,weatherlink.com 1.10,2013-11-15 09:10:00,
2013-11-15 03:25:00,36.9,26.0,30.00,SSE,162,3.0,6.0,65,0.00,,,0.00,weatherlink.com 1.10,2013-11-15 09:25:00,
2013-11-15 03:40:00,36.9,26.0,30.00,SSE,164,3.0,7.0,65,0.00,,,0.00,weatherlink.com 1.10,2013-11-15 09:40:00,
2013-11-15 03:55:00,36.9,26.0,30.00,South,176,4.0,9.0,65,0.00,,,0.00,weatherlink.com 1.10,2013-11-15 09:55:00,
2013-11-15 04:10:00,36.9,27.0,30.00,South,177,5.0,7.0,68,0.00,,,0.00,weatherlink.com 1.10,2013-11-15 10:10:00,
2013-11-15 04:25:00,36.8,26.0,30.00,South,172,4.0,6.0,66,0.00,,,0.00,weatherlink.com 1.10,2013-11-15 10:25:00,
2013-11-15 04:40:00,36.5,26.0,30.01,South,178,3.0,5.0,66,0.00,,,0.00,weatherlink.com 1.10,2013-11-15 10:40:00,
2013-11-15 04:55:00,36.3,26.0,30.01,South,169,4.0,7.0,66,0.00,,,0.00,weatherlink.com 1.10,2013-11-15 10:55:00,
2013-11-15 05:10:00,36.6,26.0,30.01,South,170,2.0,6.0,66,0.00,,,0.00,weatherlink.com 1.10,2013-11-15 11:10:00,
2013-11-15 05:25:00,36.9,26.0,30.01,SSE,163,3.0,7.0,65,0.00,,,0.00,weatherlink.com 1.10,2013-11-15 11:25:00,
2013-11-15 05:40:00,37.2,26.0,30.01,SSW,192,4.0,6.0,65,0.00,,,0.00,weatherlink.com 1.10,2013-11-15 11:40:00,
2013-11-15 05:55:00,37.4,26.0,30.01,South,173,4.0,7.0,64,0.00,,,0.00,weatherlink.com 1.10,2013-11-15 11:55:00,
2013-11-15 06:10:00,37.7,26.0,30.01,South,182,3.0,6.0,64,0.00,,,0.00,weatherlink.com 1.10,2013-11-15 12:10:00,
2013-11-15 06:25:00,38.0,27.0,30.01,South,169,5.0,7.0,64,0.00,,,0.00,weatherlink.com 1.10,2013-11-15 12:25:00,
2013-11-15 06:40:00,38.0,27.0,30.02,SSE,167,1.0,7.0,65,0.00,,,0.00,weatherlink.com 1.10,2013-11-15 12:40:00,
2013-11-15 06:55:00,38.4,27.0,30.02,SSE,166,5.0,7.0,64,0.00,,,0.00,weatherlink.com 1.10,2013-11-15 12:55:00,
2013-11-15 07:10:00,39.4,28.0,30.02,SSE,157,3.0,7.0,63,0.00,,,0.00,weatherlink.com 1.10,2013-11-15 13:10:00,
2013-11-15 07:25:00,39.3,28.0,30.02,SSE,166,3.0,6.0,65,0.00,,,0.00,weatherlink.com 1.10,2013-11-15 13:25:00,
2013-11-15 07:40:00,39.3,28.0,30.02,SSE,155,4.0,6.0,65,0.00,,,0.00,weatherlink.com 1.10,2013-11-15 13:40:00,
2013-11-15 07:55:00,40.0,29.0,30.03,SSW,194,3.0,7.0,64,0.00,,,0.00,weatherlink.com 1.10,2013-11-15 13:55:00,
2013-11-15 08:10:00,40.5,29.0,30.03,SSE,166,4.0,8.0,64,0.00,,,0.00,weatherlink.com 1.10,2013-11-15 14:10:00,
2013-11-15 08:25:00,41.1,29.0,30.03,South,181,5.0,7.0,63,0.00,,,0.00,weatherlink.com 1.10,2013-11-15 14:25:00,
2013-11-15 08:40:00,41.6,30.0,30.04,South,177,4.0,6.0,63,0.00,,,0.00,weatherlink.com 1.10,2013-11-15 14:40:00,
2013-11-15 08:55:00,41.9,31.0,30.03,South,170,4.0,7.0,65,0.00,,,0.00,weatherlink.com 1.10,2013-11-15 14:55:00,
2013-11-15 09:10:00,41.8,32.0,30.03,South,174,5.0,7.0,69,0.00,,,0.00,weatherlink.com 1.10,2013-11-15 15:10:00,
2013-11-15 09:25:00,41.8,33.0,30.02,SSE,153,5.0,7.0,72,0.00,,,0.00,weatherlink.com 1.10,2013-11-15 15:25:00,
2013-11-15 09:40:00,42.0,34.0,30.03,South,169,6.0,7.0,74,0.00,,,0.00,weatherlink.com 1.10,2013-11-15 15:40:00,
2013-11-15 09:55:00,42.0,35.0,30.03,SSE,165,5.0,8.0,77,0.00,,,0.00,weatherlink.com 1.10,2013-11-15 15:55:00,
2013-11-15 10:10:00,42.4,36.0,30.03,SSW,204,4.0,7.0,77,0.00,,,0.00,weatherlink.com 1.10,2013-11-15 16:10:00,
2013-11-15 10:25:00,43.0,36.0,30.04,South,177,3.0,7.0,77,0.00,,,0.00,weatherlink.com 1.10,2013-11-15 16:25:00,
2013-11-15 10:40:00,43.8,37.0,30.03,SSW,203,4.0,10.0,76,0.00,,,0.00,weatherlink.com 1.10,2013-11-15 16:40:00,
2013-11-15 10:55:00,44.5,37.0,30.03,SSE,167,4.0,9.0,75,0.00,,,0.00,weatherlink.com 1.10,2013-11-15 16:55:00,
2013-11-15 11:10:00,44.9,38.0,30.03,South,180,6.0,10.0,76,0.00,,,0.00,weatherlink.com 1.10,2013-11-15 17:10:00,
2013-11-15 11:25:00,45.1,38.0,30.02,SSW,198,3.0,8.0,76,0.00,,,0.00,weatherlink.com 1.10,2013-11-15 17:25:00,
2013-11-15 11:40:00,45.6,38.0,30.02,South,185,11.0,13.0,74,0.00,,,0.00,weatherlink.com 1.10,2013-11-15 17:40:00,
2013-11-15 11:55:00,45.7,37.0,30.02,South,175,5.0,11.0,73,0.00,,,0.00,weatherlink.com 1.10,2013-11-15 17:55:00,
2013-11-15 12:10:00,45.6,38.0,30.01,SSE,155,4.0,12.0,74,0.00,,,0.00,weatherlink.com 1.10,2013-11-15 18:10:00,
2013-11-15 12:25:00,45.7,38.0,30.00,SSE,154,4.0,8.0,75,0.00,,,0.00,weatherlink.com 1.10,2013-11-15 18:25:00,
2013-11-15 12:40:00,45.8,38.0,29.99,South,169,5.0,9.0,74,0.00,,,0.00,weatherlink.com 1.10,2013-11-15 18:40:00,
2013-11-15 12:55:00,46.3,38.0,30.00,SSW,192,3.0,8.0,74,0.00,,,0.00,weatherlink.com 1.10,2013-11-15 18:55:00,
2013-11-15 13:10:00,46.6,38.0,29.99,South,179,1.0,11.0,73,0.00,,,0.00,weatherlink.com 1.10,2013-11-15 19:10:00,
2013-11-15 13:25:00,46.9,38.0,29.98,South,191,2.0,9.0,72,0.00,,,0.00,weatherlink.com 1.10,2013-11-15 19:25:00,
2013-11-15 13:40:00,47.2,38.0,29.98,SSE,167,6.0,11.0,70,0.00,,,0.00,weatherlink.com 1.10,2013-11-15 19:40:00,
2013-11-15 13:55:00,47.7,38.0,29.98,SW,222,5.0,8.0,69,0.00,,,0.00,weatherlink.com 1.10,2013-11-15 19:55:00,
2013-11-15 14:11:00,48.0,37.0,29.97,SSE,165,2.0,8.0,67,0.00,,,0.00,weatherlink.com 1.10,2013-11-15 20:11:00,
2013-11-15 14:26:00,49.1,38.0,29.96,South,185,5.0,8.0,65,0.00,,,0.00,weatherlink.com 1.10,2013-11-15 20:26:00,
2013-11-15 14:41:00,50.6,37.0,29.95,SE,128,3.0,8.0,61,0.00,,,0.00,weatherlink.com 1.10,2013-11-15 20:41:00,
2013-11-15 14:56:00,50.1,37.0,29.95,SE,135,1.0,7.0,61,0.00,,,0.00,weatherlink.com 1.10,2013-11-15 20:56:00,
2013-11-15 15:11:00,51.1,37.0,29.95,South,180,7.0,9.0,59,0.00,,,0.00,weatherlink.com 1.10,2013-11-15 21:11:00,
2013-11-15 15:26:00,51.2,37.0,29.95,SE,144,4.0,7.0,58,0.00,,,0.00,weatherlink.com 1.10,2013-11-15 21:26:00,
2013-11-15 15:41:00,51.2,37.0,29.95,SSE,161,2.0,7.0,59,0.00,,,0.00,weatherlink.com 1.10,2013-11-15 21:41:00,
2013-11-15 15:56:00,51.7,37.0,29.95,SSE,153,6.0,6.0,58,0.00,,,0.00,weatherlink.com 1.10,2013-11-15 21:56:00,
2013-11-15 16:11:00,51.0,36.0,29.96,SE,136,3.0,7.0,57,0.00,,,0.00,weatherlink.com 1.10,2013-11-15 22:11:00,
2013-11-15 16:26:00,49.8,35.0,29.95,SSE,153,1.0,4.0,57,0.00,,,0.00,weatherlink.com 1.10,2013-11-15 22:26:00,
2013-11-15 16:41:00,48.8,34.0,29.95,SSE,159,4.0,4.0,58,0.00,,,0.00,weatherlink.com 1.10,2013-11-15 22:41:00,
2013-11-15 16:56:00,48.6,35.0,29.95,SSE,151,2.0,6.0,59,0.00,,,0.00,weatherlink.com 1.10,2013-11-15 22:56:00,
2013-11-15 17:11:00,48.8,34.0,29.96,SE,136,3.0,3.0,58,0.00,,,0.00,weatherlink.com 1.10,2013-11-15 23:11:00,
2013-11-15 17:26:00,48.5,34.0,29.95,SE,134,0.0,4.0,58,0.00,,,0.00,weatherlink.com 1.10,2013-11-15 23:26:00,
2013-11-15 17:41:00,48.3,34.0,29.95,ESE,117,1.0,5.0,59,0.00,,,0.00,weatherlink.com 1.10,2013-11-15 23:41:00,
2013-11-15 17:56:00,47.9,34.0,29.95,SE,127,3.0,5.0,59,0.00,,,0.00,weatherlink.com 1.10,2013-11-15 23:56:00,
2013-11-15 18:26:00,47.2,34.0,29.94,ESE,120,1.0,5.0,61,0.00,,,0.00,weatherlink.com 1.10,2013-11-16 00:26:00,
2013-11-15 18:41:00,46.8,34.0,29.95,SE,137,8.0,8.0,62,0.00,,,0.00,weatherlink.com 1.10,2013-11-16 00:41:00,
2013-11-15 18:56:00,46.5,34.0,29.95,SE,146,6.0,7.0,63,0.00,,,0.00,weatherlink.com 1.10,2013-11-16 00:56:00,
2013-11-15 19:11:00,46.0,34.0,29.94,East,93,2.0,8.0,64,0.00,,,0.00,weatherlink.com 1.10,2013-11-16 01:11:00,
2013-11-15 19:26:00,45.3,34.0,29.95,SE,130,5.0,9.0,66,0.00,,,0.00,weatherlink.com 1.10,2013-11-16 01:26:00,
2013-11-15 19:41:00,45.2,35.0,29.94,SE,134,3.0,10.0,67,0.00,,,0.00,weatherlink.com 1.10,2013-11-16 01:41:00,
2013-11-15 19:56:00,45.5,35.0,29.94,SSE,154,4.0,10.0,67,0.00,,,0.00,weatherlink.com 1.10,2013-11-16 01:56:00,
2013-11-15 20:11:00,45.1,35.0,29.93,South,179,7.0,12.0,68,0.00,,,0.00,weatherlink.com 1.10,2013-11-16 02:11:00,
2013-11-15 20:26:00,44.9,35.0,29.93,SE,144,3.0,15.0,69,0.00,,,0.00,weatherlink.com 1.10,2013-11-16 02:26:00,
2013-11-15 20:41:00,44.1,35.0,29.93,SE,135,7.0,10.0,71,0.00,,,0.00,weatherlink.com 1.10,2013-11-16 02:41:00,
2013-11-15 20:56:00,43.7,36.0,29.93,SE,144,5.0,9.0,73,0.00,,,0.00,weatherlink.com 1.10,2013-11-16 02:56:00,
2013-11-15 21:11:00,43.5,36.0,29.92,SSE,161,8.0,12.0,75,0.00,,,0.00,weatherlink.com 1.10,2013-11-16 03:11:00,
2013-11-15 21:26:00,43.3,36.0,29.93,SE,128,8.0,11.0,76,0.00,,,0.00,weatherlink.com 1.10,2013-11-16 03:26:00,
2013-11-15 21:41:00,43.1,36.0,29.93,SSE,149,3.0,12.0,77,0.00,,,0.00,weatherlink.com 1.10,2013-11-16 03:41:00,
2013-11-15 21:56:00,42.8,37.0,29.93,SE,144,6.0,10.0,79,0.00,,,0.00,weatherlink.com 1.10,2013-11-16 03:56:00,
2013-11-15 22:11:00,42.4,37.0,29.93,SSE,150,8.0,9.0,80,0.00,,,0.00,weatherlink.com 1.10,2013-11-16 04:11:00,
2013-11-15 22:26:00,42.4,37.0,29.94,South,169,6.0,10.0,81,0.00,,,0.00,weatherlink.com 1.10,2013-11-16 04:26:00,
2013-11-15 22:41:00,42.5,37.0,29.93,SE,127,7.0,12.0,82,0.00,,,0.00,weatherlink.com 1.10,2013-11-16 04:41:00,
2013-11-15 22:57:00,42.2,37.0,29.93,SSE,158,3.0,9.0,82,0.00,,,0.00,weatherlink.com 1.10,2013-11-16 04:57:00,
2013-11-15 23:12:00,41.8,37.0,29.92,SSE,167,8.0,9.0,83,0.00,,,0.00,weatherlink.com 1.10,2013-11-16 05:12:00,
2013-11-15 23:27:00,41.6,37.0,29.91,SSE,150,5.0,9.0,84,0.00,,,0.00,weatherlink.com 1.10,2013-11-16 05:27:00,
2013-11-15 23:42:00,41.5,37.0,29.91,SSE,164,6.0,11.0,85,0.00,,,0.00,weatherlink.com 1.10,2013-11-16 05:42:00,
2013-11-15 23:57:00,41.5,38.0,29.91,SSE,150,7.0,8.0,86,0.00,,,0.00,weatherlink.com 1.10,2013-11-16 05:57:00,